Overview Statistics Trail Chart Weather Telemetry Raw packets
 

This is the latest recevied weather packets stored in our database for station/object KA1JKB. If no packets are shown the sender has not sent any weather packets the latest 10 day(s).

<< 89 90 91 92 93 94 95 >>
Time Temp. Humidity Pressure Rain* Wind** Luminosity Snow
1787783325 22.78° C 90% 1009.3 hPa 0 mm - 209 W/m² -
1787783021 23.33° C 89% 1009.5 hPa 0 mm - 266 W/m² -
1787782720 23.33° C 89% 1009.4 hPa 0 mm - 172 W/m² -
1787782416 23.33° C 88% 1009.2 hPa 0 mm - 267 W/m² -
1787782111 23.33° C 87% 1009.4 hPa 0 mm - 313 W/m² -
1787781807 23.89° C 85% 1009.7 hPa 0 mm - 152 W/m² -
1787781504 23.89° C 84% 1009.6 hPa 0 mm - 139 W/m² -
1787781204 23.89° C 83% 1009.6 hPa 0 mm - 99 W/m² -
1787780902 23.89° C 82% 1009.3 hPa 0 mm - 73 W/m² -
1787780597 23.89° C 81% 1009.4 hPa 0 mm - 121 W/m² -
1787780292 23.89° C 81% 1009.4 hPa 0 mm - 135 W/m² -
1787779988 23.89° C 81% 1009 hPa 0 mm - 75 W/m² -
1787779683 23.89° C 81% 1008.9 hPa 0 mm - 109 W/m² -
1787779382 23.89° C 81% 1009.2 hPa 0 mm - 95 W/m² -
1787779077 23.89° C 80% 1009 hPa 0 mm - 72 W/m² -
1787778772 24.44° C 80% 1009.2 hPa 0 mm - 61 W/m² -
1787778469 24.44° C 80% 1009.1 hPa 0 mm - 67 W/m² -
1787778164 25° C 79% 1009.2 hPa 0 mm - 126 W/m² -
1787777864 25° C 79% 1009.4 hPa 0 mm - 324 W/m² -
1787777560 24.44° C 79% 1009.4 hPa 0 mm - 229 W/m² -
1787777260 24.44° C 79% 1009.2 hPa 0 mm - 233 W/m² -
1787776959 24.44° C 79% 1009.3 hPa 0 mm - 120 W/m² -
1787776653 24.44° C 79% 1009.5 hPa 0 mm - 115 W/m² -
1787776352 25° C 78% 1009.6 hPa 0 mm - 135 W/m² -
1787776050 25° C 79% 1009.6 hPa 0 mm - 230 W/m² -

* Rain latest hour (hover to see other rain measurements)
** Current wind speed in m/s (hover to see current wind gust speed)